Weather History for Key West NAF, FL

Change the Weather History Date:

Wednesday, December 12, 2012

  Actual Average Record
Temperature  
Mean Temperature 78 °F -  
Max Temperature 82 °F 76 °F 84 °F (1986)
Min Temperature 73 °F 67 °F 46 °F (1957)
Cooling Degree Days 12    
Growing Degree Days 28 (Base 50)    
Moisture  
Dew Point 73 °F    
Average Humidity 83    
Maximum Humidity 91    
Minimum Humidity 74    
Precipitation  
Precipitation 0.00 in - - ()
Sea Level Pressure  
Sea Level Pressure 30.05 in    
Wind  
Wind Speed 8 mph (SE)    
Max Wind Speed 15 mph    
Max Gust Speed 21 mph    
Visibility 10 miles    
Events      
Averages and records for this station are not official NWS values.
T = Trace of Precipitation, MM = Missing Value Source: NWS Daily Summary

Daily Weather History Graph

Daily Weather History Graph

Search for Another Location

Airport:

Trip Planner

Search our weather history database for the weather conditions in past years. The results will help you decide how hot, cold, wet, or windy it might be!

Date:

Astronomy

Dec. 12, 2012 Rise Set
Actual Time 7:01 AM EST 5:39 PM EST
Civil Twilight 6:36 AM EST 6:04 PM EST
Nautical Twilight 6:08 AM EST 6:33 PM EST
Astronomical Twilight 5:40 AM EST 7:00 PM EST
Moon 6:06 AM EST (12/12) 5:13 PM EST (12/12)
Length of Visible Light 11h 27m
Length of Day
10h 38m
Waning Crescent, 1% of the Moon is Illuminated
Dec 12
Waning Crescent
Dec 13
New
Dec 20
First Quarter
Dec 28
Full
Jan 4
Last Quarter

Hourly Weather History & Observations

Time (EST) Temp. Heat Index Dew Point Humidity Pressure Visibility Wind Dir Wind Speed Gust Speed Precip Events Conditions
12:53 AM 77.0 °F - 73.9 °F 90% 30.03 in 10.0 mi ESE 8.1 mph - N/A   Clear
1:28 AM 78.8 °F - 73.4 °F 83% 30.03 in 10.0 mi ESE 8.1 mph - N/A   Mostly Cloudy
1:53 AM 77.0 °F - 73.9 °F 90% 30.02 in 10.0 mi ESE 6.9 mph - N/A   Scattered Clouds
2:53 AM 78.1 °F - 73.9 °F 87% 30.02 in 10.0 mi ESE 8.1 mph - N/A   Scattered Clouds
3:53 AM 78.1 °F - 73.9 °F 87% 30.01 in 10.0 mi SE 5.8 mph - N/A   Clear
4:53 AM 78.1 °F - 73.9 °F 87% 30.01 in 10.0 mi SE 6.9 mph - N/A   Clear
5:53 AM 78.1 °F - 73.9 °F 87% 30.03 in 10.0 mi SE 6.9 mph - N/A   Partly Cloudy
6:53 AM 78.1 °F - 73.9 °F 87% 30.06 in 10.0 mi SSE 8.1 mph - N/A   Mostly Cloudy
7:53 AM 79.0 °F - 73.9 °F 84% 30.08 in 10.0 mi SSE 6.9 mph - N/A   Mostly Cloudy
8:53 AM 79.0 °F - 73.9 °F 84% 30.08 in 10.0 mi South 9.2 mph - N/A   Mostly Cloudy
9:53 AM 80.1 °F 84.2 °F 73.0 °F 79% 30.08 in 10.0 mi South 12.7 mph - N/A   Mostly Cloudy
10:53 AM 81.0 °F 85.8 °F 73.0 °F 77% 30.06 in 10.0 mi SSE 15.0 mph - N/A   Mostly Cloudy
11:53 AM 82.0 °F 87.4 °F 73.0 °F 74% 30.05 in 10.0 mi SSE 15.0 mph 20.7 mph N/A   Mostly Cloudy
12:53 PM 82.0 °F 87.4 °F 73.0 °F 74% 30.03 in 10.0 mi SSE 13.8 mph - N/A   Mostly Cloudy
1:53 PM 81.0 °F 85.2 °F 72.0 °F 74% 30.01 in 10.0 mi SSE 13.8 mph - N/A   Mostly Cloudy
2:53 PM 81.0 °F 85.2 °F 72.0 °F 74% 30.02 in 10.0 mi SSE 13.8 mph - N/A   Overcast
3:53 PM 81.0 °F 85.2 °F 72.0 °F 74% 30.04 in 10.0 mi South 5.8 mph - N/A   Mostly Cloudy
4:53 PM 80.1 °F 83.6 °F 71.1 °F 74% 30.04 in 10.0 mi SSE 4.6 mph - N/A   Scattered Clouds
5:53 PM 77.0 °F - 70.0 °F 79% 30.05 in 10.0 mi Calm Calm - N/A   Scattered Clouds
6:53 PM 75.0 °F - 71.1 °F 87% 30.06 in 10.0 mi ESE 3.5 mph - N/A   Partly Cloudy
7:53 PM 75.0 °F - 70.0 °F 84% 30.06 in 10.0 mi ESE 4.6 mph - N/A   Clear
8:53 PM 75.0 °F - 71.1 °F 87% 30.07 in 10.0 mi ESE 3.5 mph - N/A   Clear
9:53 PM 73.9 °F - 71.1 °F 91% 30.07 in 10.0 mi SE 3.5 mph - N/A   Clear
10:53 PM 75.0 °F - 72.0 °F 90% 30.08 in 10.0 mi Calm Calm - N/A   Clear
11:53 PM 75.0 °F - 71.1 °F 87% 30.06 in 10.0 mi ESE 5.8 mph - N/A   Clear